Last 24 Hours

Squaw-Siberia 8700'

Hourly Data | America/Los_Angeles
as of 10/27/20 7:55 PM PDT
Date & Time Temp (°F) RH (%) Dew Pt (°F) Wet Bulb (°F) Wind Dir (°) Wind Spd (mph) Wind Gust (mph) WindChill (°F) Daily Min Temp (°F) Daily Max Temp (°F)
10/27/20 - 1900 39.6 38 16.2 30.6 ENE | 74 38.8 49.2 28.2 24.0 44.9
10/27/20 - 1800 41.7 33 14.8 31.3 ENE | 71 37.1 52.2 31.2 24.0 44.9
10/27/20 - 1700 43.5 29 13.1 31.9 ENE | 77 30.7 40.1 33.8 24.0 44.9
10/27/20 - 1600 43.7 32 16.1 32.7 ENE | 73 36.2 48.1 32.4 24.0 44.4
10/27/20 - 1500 44.1 36 19.0 33.7 ENE | 73 39.2 52.0 32.2 24.0 44.4
10/27/20 - 1400 43.1 46 23.8 34.6 ENE | 71 41.7 54.6 28.1 24.0 43.1
10/27/20 - 1300 39.8 53 24.2 33.0 ENE | 71 49.4 63.1 24.9 24.0 40.4
10/27/20 - 1200 39.1 52 22.8 32.2 ENE | 72 56.2 72.8 22.3 24.0 39.2
10/27/20 - 1100 37.1 52 21.2 30.6 ENE | 71 55.1 68.4 18.4 24.0 37.2
10/27/20 - 1000 33.6 60 21.0 28.6 ENE | 70 52.7 66.9 14.8 24.0 33.6
10/27/20 - 0900 31.2 61 19.2 26.6 ENE | 73 43.5 57.3 12.5 24.0 31.4
10/27/20 - 0800 29.6 60 17.4 25.1 ENE | 76 38.8 53.8 10.5 24.0 29.7
10/27/20 - 0700 28.1 53 13.2 23.1 ENE | 77 43.8 52.4 5.8 24.0 28.1
10/27/20 - 0600 24.9 37 2.2 18.6 ENE | 78 43.2 55.8 5.6 24.0 27.9
10/27/20 - 0500 24.6 35 1.1 18.2 ENE | 72 46.8 63.4 5.4 24.0 27.9
10/27/20 - 0400 26.5 32 0.7 19.3 ENE | 70 48.2 61.1 5.4 24.2 27.9
10/27/20 - 0300 24.5 33 -0.7 17.8 ENE | 72 48.5 64.5 6.3 24.5 27.9
10/27/20 - 0200 27.7 29 -0.1 20.0 ENE | 68 35.8 45.9 9.9 26.3 27.9
10/27/20 - 0100 26.6 27 -2.6 18.9 ENE | 67 34.5 45.7 9.9 26.3 27.9
10/27/20 - 0000 26.5 25 -4.5 18.5 ENE | 72 38.1 49.8 8.7 13.2 31.1
10/26/20 - 2300 26.1 23 -6.4 18.1 ENE | 74 44.2 56.5 7.9 13.2 31.1
10/26/20 - 2200 26.5 22 -7.2 18.2 ENE | 73 42.9 59.6 7.2 13.2 31.1
10/26/20 - 2100 26.8 22 -6.7 18.5 ENE | 74 42.0 56.5 7.9 13.2 31.1
10/26/20 - 2000 26.7 24 -4.9 18.7 ENE | 71 43.4 57.0 9.0 13.2 31.1
10/26/20 - 1900 28.1 28 -1.2 20.0 ENE | 75 33.7 47.7 12.5 13.2 31.1
Max 44.1 61 24.2 34.6 - 56.2 72.8 33.8 26.3 44.9
Avg 32.4 38 8.5 24.8 - 42.6 55.8 15.6 - -
Min 24.5 22 -7.2 17.8 - 30.7 40.1 5.4 13.2 27.9